TimeCST,TemperatureF,Dew PointF,Humidity,Sea Level PressureIn,VisibilityMPH,Wind Direction,Wind SpeedMPH,Gust SpeedMPH,PrecipitationIn,Events,Conditions,WindDirDegrees,DateUTC
12:53 AM,26.1,24.1,92,30.39,8.0,Calm,Calm,-,N/A,,Clear,0,2011-12-17 06:53:00
1:53 AM,28.0,25.0,88,30.38,10.0,WNW,3.5,-,N/A,,Clear,290,2011-12-17 07:53:00
2:53 AM,30.9,27.0,85,30.39,10.0,West,3.5,-,N/A,,Clear,280,2011-12-17 08:53:00
3:53 AM,30.0,27.0,88,30.40,10.0,WNW,3.5,-,N/A,,Clear,300,2011-12-17 09:53:00
4:53 AM,28.9,27.0,92,30.40,10.0,West,3.5,-,N/A,,Clear,270,2011-12-17 10:53:00
5:53 AM,27.0,25.0,92,30.41,10.0,Calm,Calm,-,N/A,,Clear,0,2011-12-17 11:53:00
6:53 AM,26.6,24.8,93,30.39,10.0,Calm,Calm,-,N/A,,Clear,0,2011-12-17 12:53:00
7:53 AM,25.0,23.0,92,30.42,8.0,Calm,Calm,-,N/A,,Clear,0,2011-12-17 13:53:00
8:53 AM,30.9,28.9,92,30.40,10.0,Calm,Calm,-,N/A,,Clear,0,2011-12-17 14:53:00
9:53 AM,36.0,30.0,79,30.41,10.0,West,4.6,-,N/A,,Clear,280,2011-12-17 15:53:00
10:53 AM,39.9,30.0,68,30.41,10.0,West,6.9,-,N/A,,Clear,280,2011-12-17 16:53:00
11:53 AM,45.0,32.0,60,30.38,10.0,West,3.5,-,N/A,,Clear,270,2011-12-17 17:53:00
12:53 PM,50.0,33.1,52,30.35,10.0,Variable,4.6,-,N/A,,Clear,0,2011-12-17 18:53:00
1:53 PM,54.0,33.1,45,30.33,10.0,WNW,6.9,-,N/A,,Clear,290,2011-12-17 19:53:00
2:53 PM,53.1,28.0,38,30.32,10.0,WNW,12.7,-,N/A,,Clear,290,2011-12-17 20:53:00
3:53 PM,52.0,30.0,43,30.32,10.0,West,9.2,-,N/A,,Clear,280,2011-12-17 21:53:00
4:53 PM,48.9,32.0,52,30.33,10.0,Calm,Calm,-,N/A,,Clear,0,2011-12-17 22:53:00
5:53 PM,46.0,30.0,54,30.33,10.0,West,3.5,-,N/A,,Clear,260,2011-12-17 23:53:00
6:53 PM,39.9,28.9,65,30.35,10.0,West,3.5,-,N/A,,Clear,280,2011-12-18 00:53:00
7:53 PM,36.0,30.0,79,30.35,10.0,Calm,Calm,-,N/A,,Clear,0,2011-12-18 01:53:00
8:53 PM,34.0,28.0,79,30.35,10.0,West,3.5,-,N/A,,Clear,280,2011-12-18 02:53:00
9:53 PM,30.9,27.0,85,30.34,10.0,Calm,Calm,-,N/A,,Clear,0,2011-12-18 03:53:00
10:53 PM,30.0,28.0,92,30.34,10.0,Calm,Calm,-,N/A,,Clear,0,2011-12-18 04:53:00
11:53 PM,30.0,27.0,88,30.32,10.0,Calm,Calm,-,N/A,,Clear,0,2011-12-18 05:53:00